Theta_e
325 326 329 331 333 333 331 335 340 344 342 344 343 341 337 337 336 335 333 332 331 328 326 327 327 325 325 323 321 319 317 315 313 312 312 311 310 310 309 310 309 309 309 310
325 325 327 327 334 333 335 341 345 342 340 342 341 340 337 338 335 334 334 332 330 329 328 327 325 323 322 320 318 316 314 313 312 311 311 311 310 309 309 309 308 308 308 309
327 329 329 331 333 337 338 338 344 342 340 339 341 341 341 337 335 333 332 331 329 328 327 326 324 322 320 317 316 314 313 312 312 312 311 311 310 310 309 309 308 309 309 309
332 330 335 337 335 335 337 335 338 341 342 341 341 339 342 339 337 334 333 331 328 329 327 324 323 320 318 315 314 313 312 312 312 312 311 311 310 309 309 309 309 309 311 311
333 334 333 333 334 334 339 336 337 339 340 342 341 342 344 338 338 337 335 330 328 327 325 324 321 318 315 314 313 312 312 312 312 312 311 310 310 310 309 309 309 310 311 309
333 331 330 335 334 335 336 337 338 338 337 339 338 339 341 341 338 336 332 327 327 326 324 322 319 317 315 313 312 311 311 312 312 312 311 311 311 310 310 310 309 310 311 312
334 333 334 334 337 335 334 339 338 337 339 335 338 337 342 336 334 331 330 327 327 327 325 322 319 316 314 312 311 311 312 312 312 312 312 311 311 310 310 310 310 310 310 311
335 336 332 330 331 332 335 335 332 333 330 329 337 338 342 335 333 330 328 328 327 326 323 320 317 314 312 312 311 311 312 312 312 313 312 312 311 311 310 310 310 310 310 311
335 335 329 328 329 330 332 332 330 331 331 331 335 337 336 334 332 331 330 327 327 324 320 318 315 313 313 312 311 312 312 312 312 312 312 312 311 311 311 311 310 310 310 310
332 333 331 330 328 328 328 328 328 330 332 333 334 333 335 332 330 330 330 329 326 323 320 317 314 313 312 312 311 312 311 312 312 312 312 312 311 311 311 311 311 311 311 311
331 329 330 328 330 329 328 329 330 331 329 330 326 336 329 330 328 326 325 326 326 322 320 314 314 313 312 311 311 312 311 311 312 312 311 311 311 311 311 311 310 311 311 311
333 332 330 329 327 327 328 329 329 330 331 326 324 334 328 329 328 328 326 327 324 321 317 315 312 313 312 311 312 311 312 312 313 312 312 312 312 310 311 311 311 311 311 311
334 335 330 331 329 328 328 326 327 328 328 327 325 330 325 325 326 326 326 324 322 318 317 314 314 313 312 311 312 311 312 312 312 312 312 313 314 313 313 312 312 312 312 311
333 333 332 333 332 329 329 328 328 327 327 325 326 326 326 324 323 323 322 321 319 317 316 315 314 313 312 311 312 312 313 313 313 313 313 314 314 314 313 313 313 312 312 311
333 333 329 327 326 327 329 329 328 328 328 328 326 326 323 321 320 320 320 319 318 317 316 315 314 313 312 312 312 312 313 313 313 313 314 314 314 313 313 313 312 312 312 312
332 332 331 334 330 330 330 327 327 325 326 326 325 324 320 320 319 319 318 318 317 317 315 313 313 312 311 312 312 312 313 313 313 313 314 314 314 313 313 313 313 313 313 313
333 333 333 334 332 328 333 324 324 323 324 325 324 319 317 317 318 318 318 318 317 316 314 314 312 312 311 312 312 313 313 313 313 314 313 313 312 313 314 313 313 314 314 314
335 334 334 337 334 336 326 321 323 324 321 318 317 317 316 317 317 317 317 317 317 315 314 313 312 312 312 312 313 313 314 314 314 314 312 311 312 312 309 314 314 314 314 315
335 335 336 336 336 331 322 323 326 324 322 319 319 318 317 317 319 320 317 315 316 314 313 312 311 312 312 313 313 313 313 314 314 312 312 313 313 312 311 311 314 314 314 315
332 331 334 334 330 329 324 320 321 324 324 320 320 319 319 319 320 318 317 315 315 314 314 313 312 312 312 313 313 314 314 314 314 313 314 314 315 314 314 312 310 313 314 315
334 334 335 331 329 326 324 321 320 323 324 322 320 319 320 321 320 319 317 316 315 315 315 314 313 313 312 313 313 314 314 314 315 314 314 314 315 315 315 316 315 310 311 311
331 332 331 327 326 328 324 323 325 325 322 322 321 320 320 320 319 318 317 316 316 315 315 314 314 313 313 313 314 314 314 315 315 315 314 315 314 314 313 315 317 315 311 311
330 330 326 329 328 326 326 325 322 322 321 322 323 322 318 319 319 319 319 317 316 315 315 315 314 313 313 314 314 314 314 314 315 315 314 314 314 314 314 314 316 316 313 310
326 327 327 328 327 326 323 323 322 322 321 320 321 321 319 319 318 319 318 318 317 316 316 315 314 314 313 313 314 314 314 314 315 315 314 314 315 314 314 316 314 314 314 311
327 327 329 326 324 324 322 320 320 319 319 320 320 320 320 319 318 318 318 318 317 317 316 316 315 314 314 314 314 314 314 314 315 315 315 315 314 314 313 314 314 314 314 313
324 328 327 327 323 322 320 318 314 316 317 316 317 318 317 318 319 319 319 319 318 317 316 317 316 315 314 314 314 314 314 314 315 316 315 315 313 313 313 313 313 312 313 311
Wind_Speed
9 8 11 10 12 7 7 5 4 7 2 6 4 7 9 9 10 12 9 8 7 6 5 3 2 6 5 6 7 9 11 13 15 16 17 17 16 15 15 14 15 15 16 15
8 13 3 6 2 4 5 7 7 3 4 5 6 7 9 10 9 9 9 8 7 8 5 4 4 6 6 6 7 9 10 12 13 16 15 15 14 14 12 15 15 15 15 14
12 8 4 4 8 8 7 6 8 2 8 5 9 7 10 13 9 9 8 7 5 4 3 3 5 5 5 6 8 10 11 11 13 15 15 16 13 14 16 17 16 15 13 13
3 6 8 10 7 4 6 2 6 9 12 6 14 3 12 12 12 11 9 8 7 6 4 4 5 5 5 7 8 10 10 11 13 15 16 15 16 15 16 16 16 14 13 15
8 8 6 1 5 6 7 5 3 7 8 4 13 6 6 13 12 10 9 6 6 5 6 6 6 5 5 7 9 9 10 11 13 14 15 16 15 15 13 13 14 14 11 15
8 4 6 5 6 10 11 7 6 7 7 11 5 4 4 6 8 8 12 10 9 9 8 7 5 3 5 8 10 8 10 11 13 13 14 14 14 14 14 14 13 14 13 14
7 5 9 7 7 4 1 7 7 8 6 3 6 3 6 5 6 12 13 11 9 9 7 6 4 4 7 10 10 9 11 12 13 13 13 13 13 12 12 10 10 14 14 14
4 7 3 2 7 10 5 7 9 14 11 11 6 4 4 6 6 6 9 10 9 8 6 5 5 6 8 10 9 9 11 13 13 13 12 11 13 13 11 11 11 12 13 13
4 3 2 7 2 5 4 5 8 10 12 8 6 7 7 5 5 5 6 6 6 6 6 5 5 6 8 9 8 9 11 12 13 15 14 13 12 13 12 10 10 11 11 12
5 6 0 2 5 7 8 5 8 5 6 7 3 8 7 7 2 4 6 6 4 5 5 5 5 8 9 8 7 8 10 11 13 13 13 13 14 14 12 10 10 10 9 10
5 3 4 5 7 9 4 7 4 3 4 5 4 6 8 8 7 9 9 5 3 2 5 2 4 5 7 7 7 8 9 11 12 12 11 12 12 13 13 10 8 10 10 10
5 4 5 8 5 8 11 7 6 8 4 4 4 6 7 9 10 10 8 4 3 3 3 4 3 6 7 7 7 8 9 10 9 9 11 11 9 10 8 10 9 8 10 10
5 4 7 9 8 5 7 7 4 2 2 7 7 5 6 8 8 9 7 4 3 1 1 2 5 7 7 6 7 8 9 9 8 9 10 12 10 7 6 7 9 10 10 9
3 4 4 8 7 8 9 13 14 7 5 5 8 4 11 12 11 8 6 4 2 1 1 4 8 8 5 4 6 7 7 7 6 7 9 12 13 11 8 9 11 10 10 9
4 6 12 15 15 18 17 18 18 15 10 8 6 8 11 11 11 9 6 2 2 3 5 7 7 7 5 4 5 6 6 4 6 8 9 11 12 12 10 10 11 11 11 11
2 6 13 14 15 18 13 11 6 4 8 6 6 8 9 7 7 7 5 4 5 6 7 6 6 5 3 3 6 6 4 4 7 8 9 8 9 11 10 8 7 8 9 10
2 8 7 3 12 10 2 13 10 6 8 10 8 10 11 10 8 7 6 5 6 7 6 6 5 4 3 4 5 5 4 5 7 8 7 7 9 9 7 6 5 6 7 7
4 3 1 3 6 4 3 9 3 8 8 10 9 11 9 8 8 6 7 7 6 5 5 4 4 3 3 3 4 5 5 5 5 5 6 7 6 6 7 6 5 4 4 4
7 2 3 2 7 7 15 12 5 3 10 10 10 10 9 8 9 5 7 6 6 6 5 4 3 3 3 4 4 6 6 6 5 3 4 6 7 6 5 6 6 4 4 4
9 4 1 2 4 4 10 10 5 6 6 11 10 10 10 10 9 9 9 6 5 4 5 5 4 4 5 5 4 6 7 7 4 3 4 7 8 8 6 6 6 7 6 3
5 5 8 5 3 7 11 12 4 3 8 9 8 9 9 9 7 8 9 6 5 7 7 6 7 7 7 7 7 8 7 7 4 4 6 6 8 8 8 8 6 5 5 6
5 4 5 2 2 4 12 7 7 7 7 9 8 7 9 9 8 7 7 6 6 8 8 8 8 9 8 8 9 10 9 7 6 6 7 7 8 9 12 10 7 6 6 5
3 7 4 7 5 6 11 10 10 9 10 10 13 11 8 10 9 8 7 7 7 7 8 9 9 9 9 9 10 11 10 10 9 8 9 9 8 10 10 12 10 7 6 7
6 1 2 5 8 12 13 13 14 13 12 12 14 14 11 9 8 12 9 8 8 8 7 8 9 10 11 9 9 10 11 11 11 11 10 10 8 10 11 11 9 9 7 6
7 5 7 7 11 1 10 13 16 17 16 17 19 16 14 12 12 14 14 12 13 11 9 9 10 11 11 10 10 10 11 13 14 12 11 9 10 9 11 12 10 11 9 8
7 8 7 6 9 10 13 14 19 16 16 17 17 16 18 17 17 18 17 17 16 16 15 13 12 12 12 13 12 12 12 14 15 13 13 11 11 11 13 10 14 10 8 12
Wind_Direction
200 234 229 204 234 335 292 250 185 112 96 240 228 156 165 150 172 178 163 164 168 157 169 176 49 33 39 36 30 15 360 351 347 344 343 343 343 341 340 338 335 329 321 314
217 241 45 292 112 254 158 142 134 129 167 252 188 161 162 163 192 176 169 166 174 175 163 118 64 52 54 41 19 5 359 357 358 355 346 342 335 337 340 341 337 337 325 318
262 37 98 176 157 169 160 207 170 347 165 226 196 182 182 177 178 178 169 177 159 148 117 108 86 63 52 28 8 5 1 1 1 355 351 348 343 345 349 348 350 338 335 325
80 125 155 157 165 264 211 314 190 165 184 277 202 335 174 180 177 180 172 179 145 122 121 105 106 75 43 15 5 2 1 2 1 358 357 354 352 353 353 349 350 351 357 352
99 147 164 50 11 9 59 78 169 183 242 208 194 260 109 181 205 193 175 161 142 134 115 105 96 77 38 13 4 5 360 358 358 1 2 357 359 358 352 356 0 355 359 7
105 87 28 85 82 129 136 123 170 205 234 242 93 222 105 179 229 148 152 158 145 131 130 130 120 93 27 9 3 5 3 0 358 358 5 6 0 356 350 360 344 357 4 7
142 81 114 113 104 128 215 222 265 267 188 302 80 251 49 108 116 148 152 135 137 139 145 143 113 41 18 9 5 360 5 356 359 356 359 6 359 342 349 344 351 349 359 7
261 169 326 8 276 300 233 301 293 305 317 328 131 337 78 84 95 95 139 129 131 137 138 114 73 34 14 7 5 3 2 357 353 353 351 359 356 352 346 343 342 346 346 354
301 178 135 46 34 312 85 257 6 291 253 260 62 81 88 114 118 119 106 153 146 134 126 118 77 35 17 2 9 357 357 357 356 352 355 355 351 345 343 343 340 343 345 355
45 290 114 50 271 96 8 17 302 276 310 333 98 72 60 31 80 99 185 198 144 145 143 97 46 24 9 360 1 359 352 357 1 358 11 10 359 343 342 348 348 345 350 0
353 323 73 244 21 353 330 16 352 307 342 301 304 78 26 30 20 5 1 42 142 149 101 102 49 30 346 358 4 6 357 3 359 8 0 358 349 349 356 359 356 352 358 3
33 325 331 43 74 52 54 18 356 339 84 47 312 77 35 22 24 2 17 63 140 96 131 51 1 359 357 357 3 6 350 354 360 4 350 345 333 351 356 2 5 3 2 2
8 48 281 176 173 98 43 37 25 44 249 32 324 80 49 20 5 19 15 66 104 145 109 357 345 350 358 351 353 356 356 356 359 5 349 346 348 341 353 3 14 5 6 15
51 32 330 4 42 71 68 46 28 26 38 86 41 25 32 9 3 13 18 23 94 210 347 336 329 343 6 341 351 347 355 359 0 351 347 354 4 8 19 24 19 23 31 32
57 77 84 75 71 69 47 45 38 37 19 32 27 33 10 2 353 357 354 346 336 297 310 334 335 337 339 356 347 353 359 358 347 340 352 3 12 27 32 35 37 43 46 48
104 121 117 89 69 56 53 17 142 17 5 36 30 40 4 350 333 340 333 319 308 331 338 333 326 327 321 337 338 340 353 341 335 347 352 5 21 32 35 35 38 38 41 40
151 158 204 151 95 86 121 15 18 71 42 18 16 352 347 346 345 341 334 307 322 338 333 329 327 317 302 318 326 320 317 312 321 333 350 15 15 13 33 34 30 24 19 29
138 158 184 98 115 67 40 24 21 76 42 19 17 1 357 339 330 326 336 325 321 332 322 331 317 294 266 301 309 317 296 296 318 326 1 4 3 353 348 344 359 7 23 12
27 307 102 102 87 139 46 13 351 3 55 24 7 2 2 340 286 119 2 331 315 331 327 319 311 291 278 287 303 304 283 290 311 351 8 11 6 6 358 328 334 333 351 15
50 82 102 80 68 45 17 1 3 236 79 18 2 2 359 330 357 20 356 335 296 297 306 297 278 275 277 282 287 284 271 277 293 319 333 338 347 351 354 343 316 321 325 297
36 53 47 55 84 76 4 6 244 291 18 347 352 359 356 349 348 329 328 317 288 296 299 284 269 272 281 282 282 275 261 266 287 289 297 311 324 319 323 325 300 294 304 314
44 338 41 48 94 95 4 35 27 7 341 328 345 345 343 331 332 334 331 314 295 286 282 272 275 269 273 270 270 271 249 258 266 272 276 293 308 313 321 330 318 278 276 283
63 39 43 8 67 68 41 21 354 331 315 314 330 334 314 311 315 317 322 321 310 292 285 280 277 269 265 266 266 266 250 248 256 261 266 281 288 307 312 320 327 310 253 284
91 40 109 165 31 73 47 12 16 11 3 332 319 335 319 300 298 302 297 306 304 293 275 270 264 260 264 266 268 261 253 244 254 259 258 263 279 299 300 305 312 320 291 286
8 331 47 91 26 86 51 0 2 348 348 343 343 347 342 328 313 307 304 306 297 293 284 271 262 258 263 263 266 263 247 246 249 263 269 262 265 280 290 285 317 312 294 266
11 10 25 48 22 5 4 353 357 348 347 344 335 336 339 337 333 330 320 312 299 290 285 270 262 260 257 257 259 258 251 246 249 260 260 261 278 286 294 294 303 291 292 260